EW7230 Notodden NO current weather conditions

sailwx.info

Wind from 031

Air temperature 0.6° C
Dewpoint -0.3° C

Last reported at 2019-Dec-13 22:00 UTC.
Time now 2019-Dec-13 23:12 UTC

Location: N 59°35' E 009°11'.
View on Google Maps.

See reports from other nearby stations

  
Tides and Currents Weather Stations Pressure Air Temp Water Temp Dewpoint Dewpoint Depression Visibility Wind Speed Wind Dir Waves Ship Positions
date/time (UTC)wind fromknots sea level pressurealtimeterstation pressurevisibilityair tempwater tempwave heightnotes
2019-Dec-13 22:00 031 0.6
2019-Dec-13 21:31 032 0.6
2019-Dec-13 21:15 022 1.1
2019-Dec-13 20:46 020 1.1
2019-Dec-13 20:30 020 0.6
2019-Dec-13 20:15 020 0.6
2019-Dec-13 19:45 020 0.6
2019-Dec-13 19:31 020 1.1
2019-Dec-13 19:15 019 1.1
2019-Dec-13 19:00 019 1.1
2019-Dec-13 18:30 082 0 gusting 6 1.7
2019-Dec-13 18:00 074 0 gusting 3 1.1
2019-Dec-13 17:46 024 1.1
2019-Dec-13 17:31 024 1.1
2019-Dec-13 17:15 024 1.1
2019-Dec-13 17:00 033 2 gusting 3 1.1
2019-Dec-13 16:45 058 1 gusting 3 1.7
2019-Dec-13 16:15 139 0 gusting 3 2.2
2019-Dec-13 16:01 123 0 gusting 6 2.2
2019-Dec-13 15:30 112 1 gusting 6 1.7
2019-Dec-13 15:15 078 1 gusting 5 1.1
2019-Dec-13 15:00 068 0 gusting 2 1.1
2019-Dec-13 14:31 327 0 gusting 3 0.6
2019-Dec-13 14:15 144 1.7
2019-Dec-13 14:01 161 1 gusting 5 -0.0
2019-Dec-13 13:45 192 0.6
2019-Dec-13 13:30 042 0 gusting 2 -0.0
2019-Dec-13 13:15 066 -0.0
2019-Dec-13 12:46 285 -0.0
2019-Dec-13 12:31 285 -0.0
2019-Dec-13 12:15 284 -0.0
2019-Dec-13 12:01 284 -0.0
2019-Dec-13 11:45 284 -0.0
2019-Dec-13 11:30 284 -0.0
2019-Dec-13 11:01 300 -0.0
2019-Dec-13 10:45 300 -0.0
2019-Dec-13 10:30 300 -0.0
2019-Dec-13 10:15 300 -0.6
2019-Dec-13 10:00 300 -0.6
2019-Dec-13 09:45 300 -0.6
2019-Dec-13 09:16
2019-Dec-13 09:01
2019-Dec-13 08:45
2019-Dec-13 08:30
2019-Dec-13 08:15
2019-Dec-13 08:00
2019-Dec-13 07:32
2019-Dec-13 07:16
2019-Dec-13 07:00
2019-Dec-13 06:45
2019-Dec-13 06:30
2019-Dec-13 06:15
2019-Dec-13 05:45
2019-Dec-13 05:31
2019-Dec-13 05:15
2019-Dec-13 05:00
2019-Dec-13 04:45
2019-Dec-13 04:30
2019-Dec-13 04:01
2019-Dec-13 03:47
2019-Dec-13 03:30
2019-Dec-13 03:15
2019-Dec-13 03:00
2019-Dec-13 02:45
2019-Dec-13 02:16
2019-Dec-13 02:00
2019-Dec-13 01:45
2019-Dec-13 01:30
2019-Dec-13 01:15
2019-Dec-13 01:00
2019-Dec-13 00:32
2019-Dec-13 00:15
2019-Dec-13 00:01
2019-Dec-12 23:45
2019-Dec-12 23:30
2019-Dec-12 23:15
2019-Dec-12 22:46
2019-Dec-12 22:31 325 -0.6
2019-Dec-12 22:16 325 0.6
2019-Dec-12 22:00 325 0.6
2019-Dec-12 21:45 340 -0.0
2019-Dec-12 21:30 340 -0.0
2019-Dec-12 21:01 341 -0.0
2019-Dec-12 20:46 341 0.6
2019-Dec-12 20:30 341 0.6
2019-Dec-12 20:15 341 0.6
2019-Dec-12 20:00 348 1 gusting 3 0.6
2019-Dec-12 19:45 337 0.6
2019-Dec-12 19:16 344 0.6
2019-Dec-12 19:00 344 0.6
2019-Dec-12 18:46 344 1.1
2019-Dec-12 18:30 344 0.6
2019-Dec-12 18:16 355 3 gusting 5 0.6
2019-Dec-12 18:00 347 1 gusting 4 0.6
2019-Dec-12 17:32 263 0.6
2019-Dec-12 17:16 323 0.6
2019-Dec-12 17:01 321 0.6
2019-Dec-12 16:45 321 0.6
2019-Dec-12 16:30 319 -0.0
2019-Dec-12 16:15 319 -0.0
2019-Dec-12 15:46 317 0 gusting 3 -0.0
2019-Dec-12 15:31 280 0 gusting 3 -0.0
2019-Dec-12 15:16 257 0 gusting 3 0.6
2019-Dec-12 15:00 108 1.1
2019-Dec-12 14:45 109 0 gusting 3 1.1
2019-Dec-12 14:30 140 2 gusting 6 1.1
2019-Dec-12 14:15 140 2 gusting 6 1.1
2019-Dec-12 13:45 148 2 gusting 6 2.2
2019-Dec-12 13:31 120 1 gusting 6 2.2
2019-Dec-12 13:15 140 2 gusting 10 2.2
2019-Dec-12 13:00 128 2 gusting 6 2.8
2019-Dec-12 12:45 121 1 gusting 7 2.8
2019-Dec-12 12:30 128 2 gusting 6 2.8
2019-Dec-12 12:01 138 2 gusting 5 2.2
2019-Dec-12 11:46 118 3 gusting 8 2.2
2019-Dec-12 11:15 119 4 gusting 9 3.3
2019-Dec-12 11:00 140 3 gusting 6 3.9
2019-Dec-12 10:45 118 0 gusting 8 3.9
2019-Dec-12 10:16 187 0 gusting 3 3.3
2019-Dec-12 10:01 327 2.8
2019-Dec-12 09:46 327 2.8
2019-Dec-12 09:30 327 2.8
2019-Dec-12 09:16 334 2.8
2019-Dec-12 09:00 142 3.3
2019-Dec-12 08:30 084 2 gusting 5 3.9
2019-Dec-12 08:16 144 2.8
2019-Dec-12 08:00 355 2.2
2019-Dec-12 07:45 323 2.2
2019-Dec-12 07:30 010 2.8
2019-Dec-12 06:46 062 1 gusting 6 4.4
2019-Dec-12 06:31 076 2 gusting 8 4.4
2019-Dec-12 06:15 015 1 gusting 5 4.4
2019-Dec-12 06:00 038 2 gusting 11 4.4
2019-Dec-12 05:45 146 3 gusting 8 4.4
2019-Dec-12 05:30 089 4 gusting 9 5.0
2019-Dec-12 05:02 132 4 gusting 7 4.4
2019-Dec-12 04:46 025 1 gusting 6 4.4
2019-Dec-12 04:31 087 2 gusting 6 4.4
2019-Dec-12 04:15 099 2 gusting 6 4.4
2019-Dec-12 04:00 096 4 gusting 7 4.4
2019-Dec-12 03:45 113 2 gusting 6 4.4
2019-Dec-12 03:16 091 4 gusting 7 5.0
2019-Dec-12 03:01 105 4 gusting 8 5.0
2019-Dec-12 02:45 068 2 gusting 9 4.4
2019-Dec-12 02:30 072 1 gusting 11 4.4
2019-Dec-12 02:15 100 2 gusting 7 5.0
2019-Dec-12 02:00 106 6 gusting 9 5.0
2019-Dec-12 01:31 081 3 gusting 7 5.0
2019-Dec-12 01:16 081 2 gusting 8 4.4
2019-Dec-12 01:00 133 2 gusting 7 4.4
2019-Dec-12 00:45 080 2 gusting 8 4.4
2019-Dec-12 00:30 103 2 gusting 7 4.4
2019-Dec-12 00:15 100 3 gusting 6 4.4
2019-Dec-11 23:45 136 0 gusting 6 3.9
2019-Dec-11 23:30 138 0 gusting 6 4.4
2019-Dec-11 23:15 103 0 gusting 6 4.4
2019-Dec-11 23:00 093 3 gusting 9 4.4